{"data":{"norad_id":68227,"epoch":"2026-09-19T21:31:20.972928Z","epoch_age_seconds":103451,"freshness":"FRESH","line1":"1 68227U 26053W   26262.89677052  .00010586  00000+0  32978-3 0  9994","line2":"2 68227  97.2856 136.7258 0002236  90.6834 269.4665 15.33443881 29952","mean_motion":15.33443881,"eccentricity":0.0002236,"inclination_deg":97.2856,"raan_deg":136.7258,"arg_perigee_deg":90.6834,"mean_anomaly_deg":269.4665,"bstar":0.00032978,"rev_number":2995,"period_min":93.906273183009,"perigee_km":464.01625620541,"apogee_km":467.07675146833,"semimajor_km":6843.6835038369,"source":"CELESTRAK","updated_at":"2026-09-20T09:00:43.837100Z"}}